Location: Unspecified
(0.0000°N, 0.0000°E)
Time: 20:06:09
(UTC+00:00)

NOAA 15 - Visible Passes

Search period start: 16 October 2019 00:00
Search period end: 26 October 2019 00:00
Orbit: 798 x 812 km, 98.7° (Epoch: 16 October)

Date Brightness Start Highest point End Pass type
(mag) Time Alt. Az. Time Alt. Az. Time Alt. Az.
16 Oct 5.7 18:07:13 10° SE 18:11:09 21° ENE 18:15:05 10° NNE visible
16 Oct 6.8 19:46:27 10° SSW 19:50:39 24° WSW 19:54:51 10° NW visible
17 Oct 5.5 19:20:35 10° S 19:25:39 48° WSW 19:30:44 10° NNW visible
18 Oct 4.5 18:55:21 10° SSE 19:00:39 84° ENE 19:05:57 10° N visible
19 Oct 4.9 18:30:41 10° SSE 18:35:39 42° ENE 18:40:36 10° N visible
19 Oct 7.6 20:13:08 10° SW 20:15:07 12° WSW 20:17:06 10° W visible
20 Oct 5.7 18:06:45 10° SE 18:10:39 21° ENE 18:14:33 10° NNE visible
20 Oct 6.7 19:45:54 10° SSW 19:50:08 25° WSW 19:54:23 10° NW visible
21 Oct 5.5 19:20:03 10° S 19:25:09 49° WSW 19:30:14 10° NNW visible
22 Oct 4.5 18:54:50 10° SSE 19:00:08 83° ENE 19:05:26 10° N visible
23 Oct 5.0 18:30:11 10° SSE 18:35:08 41° ENE 18:40:05 10° N visible
23 Oct 7.6 20:12:30 10° SW 20:14:37 12° WSW 20:16:43 10° W visible
24 Oct 5.8 18:06:17 10° SE 18:10:09 21° ENE 18:14:00 10° NNE visible
24 Oct 6.7 19:45:21 10° SSW 19:49:38 25° WSW 19:53:56 10° NW visible
25 Oct 5.4 19:19:31 10° S 19:24:38 50° WSW 19:29:45 10° NNW visible
